This is the latest recevied weather packets stored in our database for station/object KM5R. If no packets are shown the sender has not sent any weather packets the latest 10 day(s).
| Time | Temp. | Humidity | Pressure | Rain* | Wind** | Luminosity | Snow |
|---|---|---|---|---|---|---|---|
| 1778010217 | 31.11° C | 53% | 1007.8 hPa | 0 mm | - | 716 W/m² | - |
| 1778009912 | 30.56° C | 56% | 1007.9 hPa | 0 mm | - | 619 W/m² | - |
| 1778009610 | 31.11° C | 56% | 1007.7 hPa | 0 mm | - | 510 W/m² | - |
| 1778009308 | 31.11° C | 55% | 1007.8 hPa | 0 mm | - | 714 W/m² | - |
| 1778009006 | 31.11° C | 56% | 1008 hPa | 0 mm | - | 783 W/m² | - |
| 1778008703 | 30.56° C | 55% | 1007.9 hPa | 0 mm | - | 742 W/m² | - |
| 1778008402 | 30.56° C | 56% | 1007.9 hPa | 0 mm | - | 781 W/m² | - |
| 1778008098 | 30.56° C | 57% | 1008.1 hPa | 0 mm | - | 537 W/m² | - |
| 1778007793 | 30.56° C | 57% | 1008.2 hPa | 0 mm | - | 762 W/m² | - |
| 1778007490 | 30.56° C | 56% | 1008.4 hPa | 0 mm | - | 642 W/m² | - |
| 1778007186 | 30.56° C | 56% | 1008.2 hPa | 0 mm | - | 693 W/m² | - |
| 1778006882 | 30° C | 58% | 1008.5 hPa | 0 mm | - | 824 W/m² | - |
| 1778006579 | 30° C | 57% | 1008.6 hPa | 0 mm | - | 590 W/m² | - |
| 1778006276 | 30° C | 56% | 1008.6 hPa | 0 mm | - | 749 W/m² | - |
| 1778005973 | 30° C | 56% | 1008.3 hPa | 0 mm | - | 659 W/m² | - |
| 1778005670 | 29.44° C | 57% | 1008.7 hPa | 0 mm | - | 697 W/m² | - |
| 1778005367 | 29.44° C | 59% | 1008.6 hPa | 0 mm | - | 628 W/m² | - |
| 1778005063 | 29.44° C | 58% | 1008.6 hPa | 0 mm | - | 549 W/m² | - |
| 1778004761 | 29.44° C | 61% | 1008.4 hPa | 0 mm | - | 654 W/m² | - |
| 1778004457 | 29.44° C | 59% | 1008.7 hPa | 0 mm | - | 627 W/m² | - |
| 1778004154 | 28.89° C | 62% | 1008.8 hPa | 0 mm | - | 604 W/m² | - |
| 1778003850 | 28.89° C | 61% | 1008.9 hPa | 0 mm | - | 633 W/m² | - |
| 1778003547 | 28.33° C | 61% | 1008.9 hPa | 0 mm | - | 592 W/m² | - |
| 1778003243 | 28.89° C | 62% | 1009 hPa | 0 mm | - | 540 W/m² | - |
| 1778002940 | 28.33° C | 62% | 1009.1 hPa | 0 mm | - | 548 W/m² | - |
* Rain latest hour (hover to see other rain measurements)
** Current wind speed in m/s (hover to see current wind gust speed)